TEVEL 4

导读 | 星芒AI

TEVEL 4 是以色列通信卫星公司 Spacecom 运营的一颗通信卫星,于 2019 年 12 月由 SpaceX 的猎鹰九号火箭发射。该卫星位于东经 72.5 度轨道位置,主要为印度次大陆提供直接到家庭(DTH)电视广播服务。TEVEL 4 搭载 Ku 波段转发器,具备高传输能力和可靠性,旨在增强区域通信覆盖并支持多频道电视服务。

基本信息
目录编号:
51063
目录名称:
TEVEL 4
国际标识:
2022-002CH
轨道中心:
EARTH
卫星名称:
TEVEL 4
卫星全名:
--
卫星状态:
已陨落 最后检测时间 2024-08-05
发射日期:
2022-01-13 UTC
国别 :
以色列 (IL)
星等 :
--
轨道信息
数据来源 国际轨道数据
星历时间: 2024-08-05T08:26:53+0800
轨道信息已过期497天
半长轴: 6578.224km
偏心率: 0.0014984
轨道倾角: 97.356°
近地点辐角 266.474°
升交点赤经 297.108°
平近点角 93.484°
近地点: 190.232km
远地点: 209.946km
周期: 88.496分钟
每日圈数: 16.271959
详细信息
使用方式:
暂无